1515787201.13,8910,9.31,73644.0,-9.37,-41.55,-41.35,0,*6B
1515787202.36,8911,9.31,73646.5,-9.35,-41.29,-41.23,0,*64
1515787203.62,8912,9.31,73644.3,-9.37,-41.55,-41.29,0,*64
1515787204.89,8913,9.31,73642.8,-9.37,-41.73,-41.55,0,*6A
1515787206.18,8914,9.31,73644.0,-9.37,-41.67,-41.55,0,*68
1515787207.42,8915,9.31,73644.5,-9.37,-41.17,-41.17,0,*68
1515787208.68,8916,9.31,73644.0,-9.37,-41.35,-41.29,0,*66
1515787209.92,8917,9.31,73642.3,-9.39,-41.35,-41.29,0,*69
1515787211.15,8918,9.31,73646.3,-9.39,-41.55,-41.49,0,*66
1515787212.44,8919,9.31,73644.0,-9.37,-41.67,-41.35,0,*63
1515787213.71,8920,9.31,73644.3,-9.37,-41.49,-41.35,0,*65
1515787214.91,8921,9.31,73646.5,-9.39,-41.49,-41.29,0,*67
1515787216.12,8922,9.31,73644.5,-9.39,-41.17,-41.17,0,*62
1515787217.35,8923,9.31,73644.5,-9.39,-41.55,-41.49,0,*6E
1515787218.58,8924,9.25,73642.8,-9.39,-41.55,-41.49,0,*69
1515787219.84,8925,9.25,73640.0,-9.39,-41.55,-41.55,0,*65
1515787221.1,8926,9.31,73646.8,-9.39,-41.55,-41.55,0,*66
1515787222.36,8927,9.25,73644.3,-9.39,-41.67,-41.55,0,*66
1515787223.6,8928,9.31,73650.0,-9.39,-41.73,-41.67,0,*6D
1515787224.86,8929,9.31,73650.3,-9.41,-41.81,-41.61,0,*68
1515787226.13,8930,9.31,73644.3,-9.41,-41.55,-41.41,0,*6B
1515787227.37,8931,9.31,73648.8,-9.41,-41.61,-41.41,0,*6D
1515787228.66,8932,9.31,73644.0,-9.41,-41.55,-41.55,0,*6C
1515787229.93,8933,9.31,73646.5,-9.43,-41.35,-41.23,0,*68
1515787231.17,8934,9.31,73644.8,-9.43,-41.41,-41.35,0,*6B
1515787232.44,8935,9.31,73646.0,-9.41,-41.61,-41.35,0,*6A
1515787233.67,8936,9.31,73650.5,-9.41,-41.73,-41.61,0,*6B
1515787234.91,8937,9.31,73648.3,-9.43,-41.61,-41.55,0,*6C
1515787236.17,8938,9.31,73646.0,-9.41,-41.55,-41.41,0,*63
1515787237.47,8939,9.31,73646.0,-9.41,-41.35,-41.23,0,*60
1515787238.68,8940,9.31,73644.5,-9.43,-41.17,-41.17,0,*6B
1515787239.89,8941,9.25,73642.8,-9.43,-41.17,-41.03,0,*6F
1515787241.19,8942,9.31,73642.0,-9.41,-40.79,-40.97,0,*6B
1515787242.45,8943,9.31,73642.0,-9.41,-40.97,-41.03,0,*66
1515787243.75,8944,9.31,73644.5,-9.41,-41.35,-41.23,0,*6A
1515787245.01,8945,9.31,73642.5,-9.43,-40.97,-40.85,0,*6D
1515787246.31,8946,9.25,73640.0,-9.41,-40.97,-40.97,0,*6F
1515787247.52,8947,9.31,73642.8,-9.43,-41.17,-41.17,0,*6C
1515787248.76,8948,9.31,73646.8,-9.41,-41.17,-41.03,0,*64
1515787250.03,8949,9.31,73644.0,-9.41,-41.23,-41.17,0,*67
1515787251.32,8950,9.31,73640.5,-9.41,-41.23,-41.35,0,*6F
1515787252.59,8951,9.31,73642.3,-9.41,-41.61,-41.55,0,*6E
1515787253.88,8952,9.31,73640.8,-9.41,-41.55,-41.35,0,*6C
1515787255.12,8953,9.31,73642.0,-9.43,-41.55,-41.41,0,*6C
1515787256.32,8954,9.31,73642.5,-9.43,-41.73,-41.61,0,*6D
1515787257.56,8955,9.31,73640.0,-9.43,-41.73,-41.55,0,*6B
1515787258.8,8956,9.31,73642.3,-9.41,-41.73,-41.61,0,*6D
1515787260.06,8957,9.31,73640.3,-9.41,-41.61,-41.55,0,*68
1515787261.27,8958,9.31,73640.0,-9.43,-41.61,-41.61,0,*62
1515787262.51,8959,9.31,73640.8,-9.43,-41.55,-41.41,0,*66
1515787263.72,8960,9.31,73640.0,-9.43,-41.61,-41.61,0,*69
1515787264.99,8961,9.31,73640.0,-9.43,-41.35,-41.35,0,*68
1515787266.23,8962,9.31,73640.8,-9.43,-41.41,-41.35,0,*68
1515787267.49,8963,9.31,73644.3,-9.43,-41.35,-41.35,0,*6A
1515787268.71,8964,9.31,73642.3,-9.43,-41.41,-41.41,0,*6D
1515787269.95,8965,9.31,73640.0,-9.43,-41.41,-41.55,0,*69
1515787271.24,8966,9.31,73640.0,-9.45,-41.67,-41.67,0,*69
1515787272.51,8967,9.31,73642.3,-9.45,-41.87,-41.67,0,*66
1515787273.76,8968,9.31,73642.3,-9.49,-41.67,-41.61,0,*6D
1515787274.98,8969,9.31,73642.0,-9.49,-41.61,-41.49,0,*60
1515787276.27,8970,9.31,73642.0,-9.45,-41.23,-41.23,0,*6E
1515787277.54,8971,9.31,73644.5,-9.45,-41.23,-41.03,0,*6D
1515787278.82,8972,9.31,73644.3,-9.45,-40.85,-40.79,0,*6F
1515787280.06,8973,9.31,73648.8,-9.45,-41.11,-41.03,0,*6E
1515787281.29,8974,9.31,73646.0,-9.45,-41.29,-41.29,0,*6A
1515787282.51,8975,9.31,73642.8,-9.49,-41.29,-41.29,0,*67
1515787283.77,8976,9.31,73646.3,-9.45,-41.23,-41.11,0,*69
1515787285.01,8977,9.31,73646.0,-9.45,-41.11,-41.03,0,*6A
1515787286.24,8978,9.31,73644.0,-9.45,-41.29,-41.29,0,*66
1515787287.51,8979,9.31,73644.0,-9.45,-41.23,-41.03,0,*65
1515787288.75,8980,9.25,73642.8,-9.45,-41.03,-40.91,0,*6B
1515787290.0,8981,9.31,73642.5,-9.45,-41.03,-41.03,0,*60
1515787291.26,8982,9.31,73646.3,-9.45,-41.11,-41.23,0,*62
1515787292.52,8983,9.31,73644.8,-9.43,-41.55,-41.35,0,*62
1515787293.78,8984,9.31,73646.3,-9.45,-41.67,-41.61,0,*63
1515787295.02,8985,9.31,73644.5,-9.45,-41.49,-41.41,0,*6C
1515787296.26,8986,9.25,73644.3,-9.45,-41.11,-40.91,0,*6E
1515787297.52,8987,9.31,73646.5,-9.43,-41.35,-41.35,0,*60
1515787298.78,8988,9.31,73644.0,-9.45,-41.29,-41.23,0,*63
1515787300.01,8989,9.25,73642.3,-9.49,-41.03,-41.03,0,*64
1515787301.25,8990,9.25,73646.0,-9.49,-41.03,-40.91,0,*66
1515787302.49,8991,9.31,73650.0,-9.45,-40.91,-41.03,0,*6B
1515787303.76,8992,9.31,73648.3,-9.45,-40.91,-40.85,0,*67
1515787305.02,8993,9.31,73648.0,-9.45,-40.85,-40.91,0,*66
1515787306.28,8994,9.31,73648.8,-9.43,-40.85,-40.79,0,*61
1515787307.53,8995,9.31,73644.3,-9.43,-41.03,-40.97,0,*6F
1515787308.77,8996,9.31,73644.3,-9.43,-41.23,-41.17,0,*67
1515787310.01,8997,9.31,73642.8,-9.43,-41.41,-41.35,0,*62
1515787311.25,8998,9.31,73644.3,-9.43,-41.55,-41.41,0,*6B
1515787312.51,8999,9.31,73644.8,-9.41,-41.55,-41.41,0,*68
1515787313.75,9000,9.31,73644.0,-9.43,-41.17,-41.23,0,*60
1515787315.01,9001,9.31,73644.5,-9.43,-40.79,-40.85,0,*65
1515787316.24,9002,9.31,73642.3,-9.43,-40.73,-40.59,0,*6D
1515787317.48,9003,9.31,73642.8,-9.43,-40.73,-40.59,0,*6C
1515787318.71,9004,9.31,73642.8,-9.43,-40.73,-40.59,0,*6B
1515787319.95,9005,9.31,73640.8,-9.41,-41.17,-41.17,0,*60
1515787321.17,9006,9.25,73638.5,-9.43,-41.03,-41.03,0,*61
1515787322.39,9007,9.31,73642.8,-9.43,-41.17,-41.03,0,*65
1515787323.65,9008,9.31,73640.5,-9.43,-41.23,-41.23,0,*6F
1515787324.95,9009,9.31,73640.0,-9.41,-41.23,-41.23,0,*6C
1515787326.24,9010,9.31,73638.8,-9.41,-41.23,-41.23,0,*64
1515787327.54,9011,9.31,73642.3,-9.41,-41.35,-41.35,0,*65
1515787328.8,9012,9.31,73640.3,-9.43,-40.85,-40.97,0,*67
1515787330.07,9013,9.31,73642.5,-9.43,-40.97,-40.97,0,*65
1515787331.32,9014,9.31,73644.8,-9.43,-41.03,-40.97,0,*6E
1515787332.61,9015,9.31,73642.5,-9.41,-40.85,-40.85,0,*61
1515787333.87,9016,9.31,73644.0,-9.43,-40.85,-40.79,0,*63
1515787335.16,9017,9.31,73642.0,-9.41,-40.97,-40.97,0,*63
1515787336.42,9018,9.31,73642.5,-9.41,-40.79,-40.73,0,*66
1515787337.68,9019,9.31,73642.3,-9.43,-40.85,-40.85,0,*6F
1515787338.93,9020,9.31,73642.0,-9.41,-41.03,-41.03,0,*67
1515787340.19,9021,9.31,73642.3,-9.43,-40.85,-40.79,0,*67
1515787341.48,9022,9.31,73644.3,-9.41,-40.85,-40.85,0,*65
1515787342.74,9023,9.31,73640.3,-9.41,-40.79,-40.73,0,*6E
1515787344.02,9024,9.31,73646.5,-9.41,-40.85,-40.79,0,*60
1515787345.27,9025,9.31,73646.8,-9.43,-41.03,-40.97,0,*6C
1515787346.55,9026,9.25,73640.5,-9.41,-40.85,-40.79,0,*62
1515787347.85,9027,9.31,73644.8,-9.41,-40.97,-40.97,0,*60
1515787349.14,9028,9.31,73644.0,-9.41,-40.97,-40.97,0,*6F
1515787350.41,9029,9.31,73640.8,-9.41,-41.03,-40.97,0,*62
1515787351.68,9030,9.31,73644.0,-9.41,-41.41,-41.35,0,*65
1515787352.97,9031,9.31,73642.5,-9.41,-41.55,-41.35,0,*61
1515787354.24,9032,9.31,73642.5,-9.41,-41.55,-41.41,0,*61
1515787355.51,9033,9.31,73642.0,-9.41,-41.61,-41.55,0,*62
1515787356.74,9034,9.31,73640.8,-9.41,-41.73,-41.61,0,*61
1515787358.0,9035,9.31,73644.3,-9.41,-41.55,-41.41,0,*66
1515787359.24,9036,9.31,73644.3,-9.43,-41.55,-41.41,0,*67
1515787360.46,9037,9.31,73640.0,-9.43,-41.41,-41.41,0,*63
1515787361.7,9038,9.31,73642.8,-9.43,-41.61,-41.55,0,*6B
1515787362.99,9039,9.31,73644.5,-9.41,-41.35,-41.35,0,*6F
1515787364.26,9040,9.31,73642.8,-9.43,-41.23,-41.35,0,*64
1515787365.52,9041,9.31,73640.3,-9.41,-41.61,-41.55,0,*67
1515787366.73,9042,9.31,73638.8,-9.43,-41.73,-41.61,0,*62
1515787367.94,9043,9.31,73640.5,-9.43,-41.73,-41.61,0,*63
1515787369.17,9044,9.31,73642.8,-9.43,-41.81,-41.61,0,*69
1515787370.38,9045,9.31,73644.8,-9.43,-41.73,-41.61,0,*65
1515787371.65,9046,9.31,73642.8,-9.43,-41.23,-41.23,0,*65
1515787372.89,9047,9.31,73640.5,-9.43,-41.41,-41.35,0,*67
1515787374.12,9048,9.31,73640.5,-9.45,-41.49,-41.29,0,*6B
1515787375.39,9049,9.31,73642.3,-9.43,-41.35,-41.23,0,*6D
1515787376.66,9050,9.31,73644.3,-9.43,-41.35,-41.35,0,*62
1515787377.88,9051,9.31,73644.8,-9.49,-41.49,-41.41,0,*61
1515787379.14,9052,9.31,73640.5,-9.45,-41.67,-41.49,0,*6A
1515787380.37,9053,9.31,73642.3,-9.45,-41.61,-41.61,0,*67
1515787381.62,9054,9.31,73640.5,-9.49,-41.81,-41.61,0,*62
1515787382.87,9055,9.31,73640.0,-9.49,-41.81,-41.61,0,*63
1515787384.09,9056,9.31,73642.5,-9.49,-41.61,-41.61,0,*6E
1515787385.32,9057,9.31,73642.8,-9.45,-41.61,-41.61,0,*63
1515787386.57,9058,9.31,73640.5,-9.49,-41.67,-41.61,0,*66
1515787387.8,9059,9.25,73642.0,-9.45,-41.61,-41.49,0,*67
1515787389.05,9060,9.31,73644.3,-9.49,-41.67,-41.61,0,*6D
1515787390.3,9061,9.31,73642.8,-9.45,-41.29,-41.23,0,*6C
1515787391.58,9062,9.31,73640.8,-9.49,-41.23,-41.23,0,*69
1515787392.81,9063,9.31,73644.8,-9.49,-41.03,-40.91,0,*62
1515787394.03,9064,9.31,73640.5,-9.49,-41.29,-41.29,0,*6F
1515787395.25,9065,9.31,73640.8,-9.49,-41.29,-41.41,0,*60
1515787396.47,9066,9.31,73642.8,-9.49,-41.61,-41.49,0,*67
1515787397.69,9067,9.31,73642.3,-9.49,-41.61,-41.49,0,*66
1515787398.92,9068,9.31,73642.3,-9.49,-41.41,-41.41,0,*63
1515787400.13,9069,9.31,73640.0,-9.49,-41.29,-41.29,0,*62
1515787401.38,9070,9.31,73640.3,-9.49,-41.11,-41.23,0,*6B
1515787402.61,9071,9.31,73642.8,-9.49,-41.11,-41.03,0,*68
1515787403.84,9072,9.31,73644.3,-9.49,-41.03,-40.91,0,*62
1515787405.09,9073,9.25,73638.8,-9.49,-41.23,-40.91,0,*61
1515787406.36,9074,9.31,73642.3,-9.45,-41.23,-41.11,0,*63
1515787407.58,9075,9.31,73640.5,-9.49,-41.11,-41.11,0,*6F
1515787408.81,9076,9.31,73642.3,-9.49,-41.03,-40.91,0,*66
1515787410.1,9077,9.25,73636.0,-9.45,-41.23,-41.23,0,*61
1515787411.32,9078,9.31,73642.5,-9.49,-41.29,-41.41,0,*6C
1515787412.56,9079,9.31,73642.8,-9.45,-41.41,-41.29,0,*61
1515787413.84,9080,9.31,73640.8,-9.49,-41.23,-41.23,0,*65
1515787415.07,9081,9.31,73640.0,-9.45,-41.49,-41.41,0,*60
1515787416.3,9082,9.31,73638.0,-9.45,-41.29,-41.29,0,*6B
1515787417.54,9083,9.31,73638.3,-9.45,-41.61,-41.41,0,*68
1515787418.76,9084,9.31,73640.5,-9.49,-41.61,-41.49,0,*6B
1515787420.01,9085,9.31,73642.0,-9.49,-41.29,-41.23,0,*6A
1515787421.22,9086,9.31,73642.3,-9.49,-41.29,-41.41,0,*6D
1515787422.44,9087,9.31,73640.0,-9.49,-41.49,-41.41,0,*6A
1515787423.69,9088,9.25,73640.5,-9.49,-41.29,-41.23,0,*67
1515787424.91,9089,9.31,73640.8,-9.49,-41.49,-41.29,0,*6A
1515787426.13,9090,9.31,73642.3,-9.49,-41.29,-41.29,0,*64
1515787427.36,9091,9.31,73642.8,-9.49,-40.91,-40.91,0,*65
1515787428.59,9092,9.31,73646.8,-9.49,-41.11,-40.91,0,*6F
1515787429.83,9093,9.31,73642.5,-9.45,-41.03,-41.03,0,*6B
1515787431.11,9094,9.31,73644.0,-9.45,-40.85,-40.79,0,*6F
1515787432.34,9095,9.31,73646.3,-9.49,-41.11,-41.03,0,*62
1515787433.58,9096,9.31,73642.8,-9.45,-40.91,-41.03,0,*64
1515787434.86,9097,9.31,73642.5,-9.49,-41.23,-41.23,0,*63
1515787436.09,9098,9.31,73642.8,-9.49,-41.03,-40.91,0,*66
1515787437.35,9099,9.25,73642.5,-9.49,-41.03,-40.85,0,*62
1515787438.58,9100,9.31,73646.3,-9.45,-41.11,-41.11,0,*60
1515787439.83,9101,9.31,73640.8,-9.49,-41.23,-41.11,0,*6C
1515787441.1,9102,9.31,73642.5,-9.45,-40.91,-40.85,0,*67
1515787442.34,9103,9.31,73644.3,-9.45,-41.11,-41.11,0,*63
1515787443.63,9104,9.31,73644.0,-9.45,-41.23,-41.23,0,*64
1515787444.92,9105,9.31,73646.5,-9.45,-41.23,-41.23,0,*65
1515787446.16,9106,9.31,73644.3,-9.45,-41.03,-41.03,0,*66
1515787447.4,9107,9.31,73642.0,-9.45,-41.11,-41.03,0,*64
1515787448.66,9108,9.31,73646.5,-9.45,-41.29,-41.23,0,*62
1515787449.89,9109,9.31,73646.5,-9.45,-41.29,-41.29,0,*69
1515787451.15,9110,9.31,73644.8,-9.45,-41.11,-41.23,0,*60
1515787452.37,9111,9.31,73646.8,-9.49,-41.41,-41.41,0,*6C
1515787453.63,9112,9.31,73646.8,-9.49,-41.23,-41.03,0,*6D
1515787454.87,9113,9.31,73642.8,-9.45,-41.11,-41.11,0,*62
1515787456.12,9114,9.25,73642.5,-9.49,-41.23,-41.11,0,*68
1515787457.34,9115,9.31,73646.0,-9.49,-41.11,-41.03,0,*6B
1515787458.57,9116,9.31,73644.5,-9.45,-41.29,-41.29,0,*67
1515787459.84,9117,9.31,73644.5,-9.45,-41.23,-41.11,0,*67
1515787461.09,9118,9.31,73644.3,-9.49,-41.11,-41.23,0,*64
1515787462.32,9119,9.25,73642.8,-9.45,-41.41,-41.41,0,*68
1515787463.56,9120,9.31,73644.5,-9.45,-41.41,-41.29,0,*6C
1515787464.78,9121,9.31,73648.3,-9.49,-41.61,-41.49,0,*65
1515787466.01,9122,9.31,73648.5,-9.45,-41.61,-41.49,0,*6A
1515787467.29,9123,9.31,73648.0,-9.49,-41.23,-41.23,0,*6D
1515787468.52,9124,9.31,73644.3,-9.49,-40.91,-40.91,0,*6A
1515787469.75,9125,9.31,73646.5,-9.49,-41.11,-41.03,0,*68
1515787470.97,9126,9.25,73646.3,-9.49,-41.11,-41.11,0,*68
1515787472.24,9127,9.31,73650.8,-9.49,-40.85,-40.79,0,*6A
1515787473.48,9128,9.31,73644.5,-9.45,-41.11,-41.03,0,*69
1515787474.7,9129,9.31,73644.0,-9.49,-41.41,-41.29,0,*69
1515787475.94,9130,9.31,73646.0,-9.45,-41.41,-41.41,0,*63
1515787477.16,9131,9.31,73644.0,-9.49,-41.49,-41.41,0,*66
1515787478.41,9132,9.31,73646.5,-9.49,-41.67,-41.41,0,*69
1515787479.63,9133,9.31,73646.0,-9.49,-41.49,-41.41,0,*64
1515787480.89,9134,9.31,73646.0,-9.45,-41.11,-41.23,0,*66
1515787482.16,9135,9.31,73642.8,-9.45,-41.23,-41.11,0,*67
1515787483.39,9136,9.31,73646.8,-9.49,-41.03,-41.11,0,*6A
1515787484.61,9137,9.31,73646.0,-9.49,-41.49,-41.41,0,*60
1515787485.83,9138,9.31,73646.3,-9.49,-41.41,-41.29,0,*69
1515787487.08,9139,9.25,73642.5,-9.49,-41.29,-41.23,0,*6C
1515787488.36,9140,9.31,73644.3,-9.49,-41.23,-41.23,0,*68
1515787489.58,9141,9.31,73646.5,-9.49,-41.49,-41.41,0,*61
1515787490.8,9142,9.31,73646.5,-9.49,-41.49,-41.41,0,*62
1515787492.02,9143,9.31,73646.0,-9.49,-41.41,-41.29,0,*65
1515787493.25,9144,9.31,73642.3,-9.49,-41.41,-41.29,0,*62
1515787494.47,9145,9.31,73644.5,-9.49,-41.49,-41.41,0,*65
1515787495.69,9146,9.31,73640.8,-9.49,-41.29,-41.29,0,*6E
1515787496.91,9147,9.31,73642.3,-9.49,-41.29,-41.29,0,*6F
1515787498.1,9148,9.31,73642.3,-9.51,-41.17,-41.17,0,*69
1515787499.35,9149,9.31,73642.0,-9.51,-40.97,-40.97,0,*68
1515787500.54,9150,9.31,73644.5,-9.51,-41.17,-41.17,0,*60
1515787501.8,9151,9.31,73644.8,-9.49,-40.91,-40.85,0,*6D
1515787503.03,9152,9.31,73646.8,-9.49,-40.91,-40.91,0,*6B
1515787504.25,9153,9.31,73646.3,-9.49,-41.11,-41.11,0,*6A
1515787505.48,9154,9.31,73646.0,-9.49,-41.11,-41.11,0,*6D
1515787506.7,9155,9.31,73646.5,-9.49,-41.03,-41.11,0,*6F
1515787507.93,9156,9.31,73650.5,-9.49,-41.11,-41.03,0,*6C
1515787509.16,9157,9.31,73648.5,-9.49,-41.03,-40.91,0,*64
1515787510.38,9158,9.31,73650.3,-9.51,-41.29,-41.35,0,*65
1515787511.57,9159,9.25,73646.5,-9.51,-41.29,-41.17,0,*64
1515787512.79,9160,9.31,73650.3,-9.51,-41.11,-40.97,0,*6C
1515787514.07,9161,9.25,73644.0,-9.49,-40.85,-40.85,0,*6B
1515787515.35,9162,9.31,73648.8,-9.49,-41.23,-41.23,0,*68
1515787516.57,9163,9.31,73646.8,-9.49,-41.29,-41.29,0,*69
1515787517.84,9164,9.31,73646.8,-9.49,-41.23,-41.23,0,*6E
1515787519.06,9165,9.31,73644.3,-9.51,-41.35,-41.49,0,*6D
1515787520.28,9166,9.31,73644.3,-9.51,-41.29,-41.35,0,*68
1515787521.5,9167,9.31,73644.8,-9.49,-41.49,-41.49,0,*6D
1515787522.72,9168,9.31,73644.0,-9.49,-41.49,-41.49,0,*62
1515787523.97,9169,9.31,73644.0,-9.51,-41.67,-41.67,0,*6A
1515787525.22,9170,9.31,73644.5,-9.51,-41.55,-41.55,0,*62
1515787526.44,9171,9.31,73644.0,-9.51,-41.73,-41.55,0,*67
1515787527.69,9172,9.31,73646.8,-9.51,-41.55,-41.55,0,*60
1515787528.91,9173,9.31,73644.3,-9.51,-41.11,-40.97,0,*6E
1515787530.11,9174,9.31,73644.8,-9.51,-41.11,-41.17,0,*60
1515787531.37,9175,9.31,73648.8,-9.53,-40.91,-40.97,0,*63
1515787532.56,9176,9.31,73644.5,-9.51,-41.17,-41.11,0,*62
1515787533.75,9177,9.31,73644.8,-9.51,-41.29,-41.17,0,*68
1515787535.01,9178,9.31,73642.0,-9.51,-41.35,-41.35,0,*6A
1515787536.23,9179,9.31,73642.5,-9.53,-41.11,-41.11,0,*69
1515787537.48,9180,9.31,73640.5,-9.51,-40.97,-40.97,0,*6D
1515787538.76,9181,9.25,73640.0,-9.53,-40.97,-40.97,0,*6E
1515787539.96,9182,9.31,73642.0,-9.51,-41.17,-41.11,0,*69
1515787541.16,9183,9.31,73640.0,-9.51,-41.17,-41.11,0,*68
1515787542.35,9184,9.31,73640.8,-9.51,-41.11,-41.17,0,*6F
1515787543.54,9185,9.25,73640.8,-9.51,-41.17,-41.17,0,*68
1515787544.73,9186,9.31,73644.5,-9.51,-41.29,-41.29,0,*6B
1515787545.93,9187,9.31,73644.0,-9.51,-41.17,-41.11,0,*6C
1515787547.18,9188,9.31,73644.8,-9.51,-41.35,-41.35,0,*65
1515787548.37,9189,9.31,73644.3,-9.51,-41.11,-41.11,0,*64
1515787549.57,9190,9.31,73642.0,-9.51,-41.11,-41.17,0,*6A
1515787550.76,9191,9.31,73644.5,-9.51,-41.17,-41.29,0,*60
1515787551.96,9192,9.31,73640.0,-9.51,-41.11,-41.17,0,*68
1515787553.17,9193,9.31,73644.8,-9.51,-41.29,-41.35,0,*62
1515787554.36,9194,9.31,73642.0,-9.51,-41.49,-41.49,0,*68
1515787555.58,9195,9.31,73644.3,-9.51,-41.29,-41.35,0,*64
1515787556.81,9196,9.31,73646.8,-9.53,-41.17,-41.17,0,*68
1515787558.0,9197,9.31,73644.3,-9.51,-41.29,-41.17,0,*66
1515787559.19,9198,9.31,73642.3,-9.51,-41.17,-41.17,0,*64
1515787560.38,9199,9.31,73644.0,-9.51,-41.29,-41.29,0,*65
1515787561.57,9200,9.31,73640.0,-9.51,-41.29,-41.17,0,*6B
1515787562.76,9201,9.31,73644.0,-9.51,-41.29,-41.29,0,*67
1515787564.01,9202,9.31,73642.8,-9.51,-41.35,-41.35,0,*64
1515787565.24,9203,9.31,73642.0,-9.51,-41.35,-41.17,0,*65
1515787566.49,9204,9.31,73640.8,-9.53,-41.55,-41.49,0,*6D
1515787567.71,9205,9.31,73640.0,-9.51,-41.35,-41.29,0,*6E
1515787568.93,9206,9.25,73638.0,-9.53,-41.17,-41.29,0,*6F
1515787570.21,9207,9.31,73640.8,-9.53,-41.55,-41.55,0,*63
1515787571.44,9208,9.31,73644.3,-9.53,-41.87,-41.73,0,*67
1515787572.72,9209,9.31,73642.3,-9.53,-41.67,-41.55,0,*6C
1515787573.91,9210,9.31,73640.8,-9.51,-41.49,-41.49,0,*67
1515787575.16,9211,9.31,73644.0,-9.53,-41.49,-41.35,0,*6F
1515787576.39,9212,9.31,73644.3,-9.53,-41.11,-41.11,0,*67
1515787577.61,9213,9.31,73644.0,-9.53,-41.29,-41.17,0,*6B
1515787578.86,9214,9.31,73642.5,-9.51,-40.97,-40.97,0,*63
1515787580.08,9215,9.31,73644.5,-9.53,-41.17,-41.17,0,*60
1515787581.34,9216,9.31,73642.5,-9.53,-41.49,-41.55,0,*6E
1515787582.56,9217,9.31,73640.3,-9.53,-41.29,-41.29,0,*62
1515787583.78,9218,9.31,73640.5,-9.53,-41.29,-41.29,0,*6D
1515787585.0,9219,9.31,73640.8,-9.53,-41.17,-41.29,0,*61
1515787586.28,9220,9.31,73640.8,-9.53,-41.35,-41.35,0,*66
1515787587.51,9221,9.31,73644.3,-9.53,-41.17,-41.11,0,*61
1515787588.79,9222,9.31,73644.5,-9.53,-40.97,-40.97,0,*64
1515787590.02,9223,9.31,73642.5,-9.53,-41.17,-41.17,0,*65
1515787591.27,9224,9.31,73644.3,-9.53,-41.11,-40.97,0,*6D
1515787592.52,9225,9.25,73640.0,-9.53,-40.97,-40.91,0,*65
1515787593.78,9226,9.31,73648.5,-9.51,-40.97,-40.97,0,*62
1515787595.0,9227,9.31,73646.0,-9.51,-40.91,-40.85,0,*66
1515787596.26,9228,9.31,73646.8,-9.53,-40.91,-40.85,0,*6B
1515787597.46,9229,9.31,73646.5,-9.51,-41.17,-41.17,0,*6D
1515787598.68,9230,9.31,73646.0,-9.53,-41.17,-41.17,0,*67
1515787599.91,9231,9.31,73646.8,-9.51,-41.11,-40.97,0,*6B
1515787601.13,9232,9.31,73644.3,-9.51,-41.11,-40.97,0,*68
1515787602.35,9233,9.31,73644.5,-9.53,-41.11,-41.17,0,*62
1515787603.55,9234,9.31,73646.8,-9.51,-41.17,-41.11,0,*67
1515787604.8,9235,9.25,73640.0,-9.53,-41.11,-40.97,0,*6D
1515787606.03,9236,9.31,73646.3,-9.51,-40.97,-41.11,0,*6C
1515787607.26,9237,9.31,73640.3,-9.51,-40.91,-40.97,0,*64
1515787608.46,9238,9.31,73644.3,-9.51,-40.91,-40.91,0,*6D
1515787609.69,9239,9.31,73644.5,-9.51,-40.91,-40.85,0,*69
1515787610.89,9240,9.31,73644.0,-9.51,-41.11,-41.11,0,*62
1515787612.08,9241,9.31,73642.5,-9.51,-41.11,-41.17,0,*65
1515787613.27,9242,9.25,73636.3,-9.51,-41.29,-41.17,0,*6D
1515787614.46,9243,9.31,73640.3,-9.51,-41.29,-41.11,0,*6A
1515787615.66,9244,9.31,73638.8,-9.51,-41.17,-41.17,0,*66
1515787616.85,9245,9.31,73640.3,-9.51,-41.11,-41.17,0,*61
1515787618.07,9246,9.31,73642.3,-9.51,-41.55,-41.49,0,*69
1515787619.29,9247,9.31,73640.8,-9.51,-41.67,-41.49,0,*69
1515787620.57,9248,9.25,73636.3,-9.53,-41.67,-41.67,0,*68
1515787621.83,9249,9.31,73640.5,-9.53,-41.73,-41.67,0,*6C
1515787623.08,9250,9.31,73640.0,-9.53,-41.73,-41.67,0,*64
1515787624.31,9251,9.31,73640.0,-9.53,-41.49,-41.29,0,*66
1515787625.53,9252,9.31,73642.0,-9.53,-41.17,-41.29,0,*6E
1515787626.75,9253,9.31,73640.8,-9.53,-41.29,-41.29,0,*62
1515787627.97,9254,9.25,73638.0,-9.53,-41.29,-41.29,0,*65
1515787629.19,9255,9.31,73638.0,-9.53,-41.49,-41.49,0,*64
1515787630.45,9256,9.25,73638.0,-9.53,-41.35,-41.29,0,*6A
1515787631.7,9257,9.31,73642.5,-9.55,-41.35,-41.35,0,*60
1515787632.94,9258,9.31,73640.5,-9.55,-41.03,-40.97,0,*63
1515787634.16,9259,9.31,73636.5,-9.55,-40.91,-40.79,0,*68
1515787635.39,9260,9.31,73640.3,-9.53,-41.11,-41.11,0,*62
1515787636.61,9261,9.25,73638.8,-9.53,-41.17,-41.29,0,*6E
1515787637.83,9262,9.25,73640.8,-9.53,-41.29,-41.17,0,*6D
1515787639.05,9263,9.31,73644.5,-9.53,-41.29,-41.29,0,*61
1515787640.27,9264,9.31,73642.8,-9.53,-41.49,-41.49,0,*66
1515787641.52,9265,9.31,73644.5,-9.53,-40.97,-41.11,0,*68
1515787642.78,9266,9.31,73644.8,-9.53,-40.97,-41.11,0,*6B
1515787644.03,9267,9.25,73638.0,-9.53,-41.35,-41.49,0,*6E
1515787645.22,9268,9.31,73646.0,-9.51,-41.49,-41.49,0,*68
1515787646.47,9269,9.31,73646.0,-9.53,-41.35,-41.29,0,*66
1515787647.7,9270,9.31,73646.3,-9.53,-41.11,-41.17,0,*65
1515787648.96,9271,9.31,73642.8,-9.53,-40.91,-40.97,0,*64
1515787650.21,9272,9.31,73644.8,-9.53,-41.35,-41.49,0,*6A
1515787651.46,9273,9.31,73640.5,-9.53,-41.55,-41.49,0,*6D
1515787652.68,9274,9.31,73642.8,-9.55,-41.41,-41.23,0,*65
1515787653.91,9275,9.31,73640.8,-9.55,-41.41,-41.35,0,*63
1515787655.16,9276,9.31,73640.3,-9.55,-41.35,-41.23,0,*64
1515787656.39,9277,9.25,73638.0,-9.55,-41.41,-41.35,0,*61
1515787657.62,9278,9.31,73642.5,-9.55,-41.41,-41.23,0,*69
1515787658.87,9279,9.25,73636.8,-9.55,-41.55,-41.35,0,*6A
1515787660.12,9280,9.31,73640.0,-9.55,-41.35,-41.35,0,*6A
1515787661.32,9281,9.25,73636.8,-9.55,-41.41,-41.17,0,*68
1515787662.56,9282,9.31,73640.8,-9.55,-41.03,-40.97,0,*64
1515787663.79,9283,9.31,73640.8,-9.55,-41.03,-40.97,0,*65
1515787665.05,9284,9.31,73642.3,-9.53,-40.91,-40.85,0,*6D
1515787666.28,9285,9.25,73638.8,-9.51,-40.91,-40.85,0,*6E
1515787667.56,9286,9.25,73642.8,-9.53,-40.97,-40.97,0,*6A
1515787668.84,9287,9.31,73644.3,-9.53,-40.97,-40.97,0,*6B
1515787670.12,9288,9.31,73646.8,-9.53,-40.97,-40.97,0,*64
1515787671.38,9289,9.31,73642.8,-9.53,-41.35,-41.29,0,*68
1515787672.63,9290,9.31,73646.0,-9.53,-41.35,-41.29,0,*60
1515787673.85,9291,9.31,73644.0,-9.53,-41.49,-41.49,0,*6C
1515787675.11,9292,9.31,73646.0,-9.53,-41.49,-41.35,0,*64
1515787676.35,9293,9.31,73640.3,-9.53,-41.55,-41.49,0,*63
1515787677.57,9294,9.31,73642.3,-9.53,-41.49,-41.49,0,*69
1515787678.8,9295,9.31,73640.8,-9.53,-41.29,-41.17,0,*65
1515787679.99,9296,9.31,73642.0,-9.51,-41.29,-41.29,0,*69
1515787681.21,9297,9.31,73640.3,-9.53,-41.11,-41.17,0,*6C
1515787682.43,9298,9.31,73644.0,-9.51,-41.35,-41.29,0,*6A
1515787683.68,9299,9.31,73642.3,-9.53,-41.55,-41.49,0,*69
1515787684.93,9300,9.31,73640.3,-9.53,-41.73,-41.55,0,*61
1515787686.18,9301,9.31,73640.5,-9.53,-41.73,-41.55,0,*60
1515787687.44,9302,9.31,73642.0,-9.53,-41.67,-41.49,0,*6B
1515787688.63,9303,9.31,73640.0,-9.55,-41.73,-41.73,0,*60
1515787689.83,9304,9.31,73640.8,-9.55,-41.61,-41.61,0,*67
1515787691.08,9305,9.31,73642.5,-9.57,-41.61,-41.55,0,*63
1515787692.36,9306,9.31,73640.8,-9.57,-41.55,-41.55,0,*67
1515787693.6,9307,9.31,73642.3,-9.57,-41.73,-41.55,0,*62
1515787694.85,9308,9.25,73642.8,-9.57,-41.41,-41.35,0,*6A
1515787696.05,9309,9.31,73644.0,-9.55,-41.41,-41.41,0,*6A
1515787697.31,9310,9.31,73644.8,-9.57,-41.41,-41.35,0,*63
1515787698.5,9311,9.31,73640.8,-9.55,-41.73,-41.61,0,*60
1515787699.72,9312,9.31,73640.0,-9.57,-41.73,-41.61,0,*61
1515787700.95,9313,9.31,73638.8,-9.55,-41.55,-41.41,0,*64
1515787702.2,9314,9.31,73644.0,-9.57,-41.61,-41.55,0,*63
1515787703.42,9315,9.31,73642.3,-9.55,-41.55,-41.41,0,*62
1515787704.68,9316,9.25,73640.8,-9.55,-41.35,-41.23,0,*63
1515787705.91,9317,9.31,73644.0,-9.57,-41.03,-40.91,0,*6D
1515787707.13,9318,9.31,73642.5,-9.57,-41.41,-41.41,0,*68
1515787708.38,9319,9.31,73642.3,-9.57,-41.41,-41.35,0,*6A
1515787709.58,9320,9.31,73642.3,-9.59,-41.61,-41.49,0,*67
1515787710.86,9321,9.31,73642.3,-9.57,-41.35,-41.23,0,*65
1515787712.08,9322,9.31,73644.5,-9.57,-41.41,-41.41,0,*61
1515787713.36,9323,9.31,73644.8,-9.57,-41.55,-41.55,0,*60